| time (UTC) | temp F | wind direction | speed knots | gust knots | rain 1hr in | rain 24hr in | rain mn in | humidity % | barometer mb |
| 20260508142505 | 83 | 352 | 1.7 | 6.1 | 0.00 | 0.00 | 0.00 | 74 | 1017.3 |
| 20260508142004 | 82 | 267 | 1.7 | 6.1 | 0.00 | 0.00 | 0.00 | 75 | 1017.3 |
| 20260508141516 | 81 | 360 | 2.6 | 7.0 | 0.00 | 0.00 | 0.00 | 75 | 1017.3 |
| 20260508141005 | 82 | 312 | 0.9 | 7.0 | 0.00 | 0.00 | 0.00 | 75 | 1017.3 |
| 20260508140013 | 82 | 277 | 3.5 | 8.7 | 0.00 | 0.00 | 0.00 | 76 | 1017.4 |
| 20260508135508 | 82 | 315 | 3.5 | 9.6 | 0.00 | 0.00 | 0.00 | 76 | 1017.4 |
| 20260508134503 | 80 | 331 | 2.6 | 8.7 | 0.00 | 0.00 | 0.00 | 80 | 1017.3 |
| 20260508134004 | 80 | 290 | 2.6 | 8.7 | 0.00 | 0.00 | 0.00 | 80 | 1017.2 |
| 20260508133507 | 79 | 294 | 1.7 | 8.7 | 0.00 | 0.00 | 0.00 | 82 | 1017.2 |
| 20260508133010 | 79 | 333 | 3.5 | 7.8 | 0.00 | 0.00 | 0.00 | 83 | 1017.1 |
| 20260508132505 | 79 | 338 | 3.5 | 7.8 | 0.00 | 0.00 | 0.00 | 82 | 1017.1 |
| 20260508132004 | 78 | 332 | 2.6 | 7.8 | 0.00 | 0.00 | 0.00 | 83 | 1017.2 |
| 20260508131516 | 78 | 319 | 1.7 | 4.3 | 0.00 | 0.00 | 0.00 | 84 | 1017.1 |
| 20260508131004 | 78 | 305 | 1.7 | 7.0 | 0.00 | 0.00 | 0.00 | 87 | 1017.1 |
| 20260508130024 | 77 | 306 | 1.7 | 7.0 | 0.00 | 0.00 | 0.00 | 87 | 1017.2 |
| 20260508125503 | 77 | 330 | 1.7 | 6.1 | 0.00 | 0.00 | 0.00 | 88 | 1017.1 |
| 20260508125009 | 77 | 284 | 1.7 | 7.0 | 0.00 | 0.00 | 0.00 | 88 | 1017.1 |
| 20260508124520 | 77 | 263 | 2.6 | 7.0 | 0.00 | 0.00 | 0.00 | 90 | 1017.0 |
| 20260508124009 | 76 | 288 | 0.9 | 5.2 | 0.00 | 0.00 | 0.00 | 91 | 1017.0 |
| 20260508123503 | 75 | 329 | 1.7 | 6.1 | 0.00 | 0.00 | 0.00 | 93 | 1017.0 |
| 20260508123010 | 74 | 271 | 1.7 | 6.1 | 0.00 | 0.00 | 0.00 | 95 | 1017.0 |
| 20260508122503 | 74 | 300 | 0.9 | 5.2 | 0.00 | 0.00 | 0.00 | 97 | 1016.8 |
| 20260508122006 | 73 | 306 | 0.0 | 3.5 | 0.00 | 0.00 | 0.00 | 97 | 1016.8 |
| 20260508121515 | 73 | 308 | 0.9 | 3.5 | 0.00 | 0.00 | 0.00 | 97 | 1016.8 |
| 20260508121003 | 72 | 309 | 0.9 | 3.5 | 0.00 | 0.00 | 0.00 | 97 | 1016.7 |
| 20260508120507 | 72 | 286 | 0.9 | 3.5 | 0.00 | 0.00 | 0.00 | 97 | 1016.5 |
| 20260508120012 | 71 | 269 | 0.0 | 2.6 | 0.00 | 0.00 | 0.00 | 97 | 1016.4 |
| 20260508115509 | 70 | 271 | 0.0 | 2.6 | 0.00 | 0.00 | 0.00 | 96 | 1016.5 |
| 20260508114511 | 69 | 271 | 0.0 | 0.0 | 0.00 | 0.00 | 0.00 | 96 | 1016.3 |
| 20260508114008 | 68 | 271 | 0.0 | 0.0 | 0.00 | 0.00 | 0.00 | 96 | 1016.2 |
| 20260508113507 | 68 | 271 | 0.0 | 0.0 | 0.00 | 0.00 | 0.00 | 96 | 1016.2 |
| 20260508113022 | 67 | 271 | 0.0 | 0.0 | 0.00 | 0.00 | 0.00 | 96 | 1016.1 |
| 20260508112508 | 67 | 271 | 0.0 | 0.0 | 0.00 | 0.00 | 0.00 | 96 | 1016.1 |
| 20260508112007 | 67 | 271 | 0.0 | 0.0 | 0.00 | 0.00 | 0.00 | 96 | 1015.9 |
| 20260508111521 | 66 | 271 | 0.0 | 0.0 | 0.00 | 0.00 | 0.00 | 95 | 1015.9 |
| 20260508111011 | 66 | 271 | 0.0 | 0.0 | 0.00 | 0.00 | 0.00 | 95 | 1015.8 |
| 20260508110509 | 66 | 271 | 0.0 | 0.0 | 0.00 | 0.00 | 0.00 | 95 | 1015.9 |
| 20260508110020 | 66 | 271 | 0.0 | 0.0 | 0.00 | 0.00 | 0.00 | 95 | 1015.8 |
| 20260508105509 | 66 | 271 | 0.0 | 0.0 | 0.00 | 0.00 | 0.00 | 94 | 1015.7 |
| 20260508105009 | 66 | 271 | 0.0 | 0.0 | 0.00 | 0.00 | 0.00 | 94 | 1015.6 |
| 20260508104521 | 66 | 271 | 0.0 | 0.0 | 0.00 | 0.00 | 0.00 | 95 | 1015.5 |
| 20260508104011 | 66 | 271 | 0.0 | 0.0 | 0.00 | 0.00 | 0.00 | 95 | 1015.4 |
| 20260508103507 | 66 | 271 | 0.0 | 0.0 | 0.00 | 0.00 | 0.00 | 95 | 1015.5 |
| 20260508103021 | 66 | 271 | 0.0 | 0.0 | 0.00 | 0.00 | 0.00 | 94 | 1015.5 |
| 20260508102010 | 66 | 271 | 0.0 | 0.0 | 0.00 | 0.00 | 0.00 | 94 | 1015.3 |
| 20260508101524 | 65 | 271 | 0.0 | 0.0 | 0.00 | 0.00 | 0.00 | 94 | 1015.2 |
| 20260508101008 | 65 | 271 | 0.0 | 0.0 | 0.00 | 0.00 | 0.00 | 94 | 1015.2 |
| 20260508100026 | 65 | 271 | 0.0 | 0.0 | 0.00 | 0.00 | 0.00 | 93 | 1015.1 |
| 20260508095510 | 65 | 271 | 0.0 | 0.0 | 0.00 | 0.00 | 0.00 | 94 | 1015.0 |
| 20260508095006 | 66 | 271 | 0.0 | 0.0 | 0.00 | 0.00 | 0.00 | 94 | 1015.0 |
| 20260508094524 | 66 | 271 | 0.0 | 0.0 | 0.00 | 0.00 | 0.00 | 94 | 1015.0 |
| 20260508094008 | 66 | 271 | 0.0 | 0.0 | 0.00 | 0.00 | 0.00 | 94 | 1014.9 |
| 20260508093507 | 66 | 271 | 0.0 | 0.0 | 0.00 | 0.00 | 0.00 | 94 | 1014.8 |
| 20260508093024 | 66 | 271 | 0.0 | 0.0 | 0.00 | 0.00 | 0.00 | 94 | 1014.9 |
| 20260508092508 | 65 | 271 | 0.0 | 0.0 | 0.00 | 0.00 | 0.00 | 93 | 1014.8 |
| 20260508092010 | 66 | 271 | 0.0 | 0.0 | 0.00 | 0.00 | 0.00 | 93 | 1014.7 |
| 20260508091007 | 66 | 271 | 0.0 | 0.0 | 0.00 | 0.00 | 0.00 | 93 | 1014.7 |
| 20260508090508 | 66 | 271 | 0.0 | 0.0 | 0.00 | 0.00 | 0.00 | 93 | 1014.7 |
| 20260508090029 | 66 | 271 | 0.0 | 0.0 | 0.00 | 0.00 | 0.00 | 93 | 1014.6 |
| 20260508085508 | 66 | 271 | 0.0 | 0.0 | 0.00 | 0.00 | 0.00 | 93 | 1014.6 |
| 20260508085007 | 66 | 271 | 0.0 | 0.0 | 0.00 | 0.00 | 0.00 | 93 | 1014.6 |
| 20260508084528 | 66 | 271 | 0.0 | 0.0 | 0.00 | 0.00 | 0.00 | 93 | 1014.6 |
| 20260508084009 | 66 | 271 | 0.0 | 0.0 | 0.00 | 0.00 | 0.00 | 93 | 1014.6 |
| 20260508083504 | 66 | 271 | 0.0 | 0.0 | 0.00 | 0.00 | 0.00 | 92 | 1014.6 |
| 20260508083011 | 66 | 271 | 0.0 | 0.0 | 0.00 | 0.00 | 0.00 | 93 | 1014.6 |
| 20260508082508 | 66 | 271 | 0.0 | 0.0 | 0.00 | 0.00 | 0.00 | 93 | 1014.5 |
| 20260508082012 | 66 | 271 | 0.0 | 0.0 | 0.00 | 0.00 | 0.00 | 92 | 1014.5 |
| 20260508081507 | 66 | 271 | 0.0 | 0.0 | 0.00 | 0.00 | 0.00 | 92 | 1014.4 |
| 20260508081004 | 66 | 271 | 0.0 | 0.0 | 0.00 | 0.00 | 0.00 | 92 | 1014.5 |
| 20260508080510 | 66 | 271 | 0.0 | 0.0 | 0.00 | 0.00 | 0.00 | 92 | 1014.6 |
| 20260508080007 | 67 | 271 | 0.0 | 0.0 | 0.00 | 0.00 | 0.00 | 92 | 1014.5 |
| 20260508075504 | 67 | 271 | 0.0 | 0.0 | 0.00 | 0.00 | 0.00 | 92 | 1014.5 |
| 20260508075007 | 66 | 271 | 0.0 | 0.0 | 0.00 | 0.00 | 0.00 | 92 | 1014.7 |
| 20260508074510 | 67 | 271 | 0.0 | 0.0 | 0.00 | 0.00 | 0.00 | 92 | 1014.6 |
| 20260508073508 | 67 | 271 | 0.0 | 0.0 | 0.00 | 0.00 | 0.00 | 91 | 1014.8 |
| 20260508073016 | 67 | 271 | 0.0 | 0.0 | 0.00 | 0.00 | 0.00 | 92 | 1014.8 |
| 20260508072506 | 67 | 271 | 0.0 | 0.0 | 0.00 | 0.00 | 0.00 | 91 | 1014.9 |
| 20260508072007 | 67 | 271 | 0.0 | 0.0 | 0.00 | 0.00 | 0.00 | 92 | 1014.9 |
| 20260508071525 | 67 | 271 | 0.0 | 0.0 | 0.00 | 0.00 | 0.00 | 91 | 1014.9 |
| 20260508071009 | 67 | 271 | 0.0 | 0.0 | 0.00 | 0.00 | 0.00 | 91 | 1014.9 |
| 20260508070504 | 67 | 271 | 0.0 | 0.0 | 0.00 | 0.00 | 0.00 | 91 | 1014.9 |
| 20260508070014 | 67 | 271 | 0.0 | 0.0 | 0.00 | 0.00 | 0.00 | 91 | 1015.0 |
| 20260508065504 | 67 | 271 | 0.0 | 0.0 | 0.00 | 0.00 | 0.00 | 91 | 1015.1 |
| 20260508065006 | 67 | 271 | 0.0 | 0.0 | 0.00 | 0.00 | 0.00 | 90 | 1014.9 |
| 20260508064512 | 67 | 271 | 0.0 | 0.0 | 0.00 | 0.00 | 0.00 | 90 | 1015.0 |
| 20260508064005 | 67 | 271 | 0.0 | 0.0 | 0.00 | 0.00 | 0.00 | 90 | 1014.9 |
| 20260508063508 | 67 | 271 | 0.0 | 0.0 | 0.00 | 0.00 | 0.00 | 89 | 1015.1 |
| 20260508062507 | 67 | 271 | 0.0 | 0.0 | 0.00 | 0.00 | 0.00 | 88 | 1015.1 |
| 20260508062007 | 67 | 271 | 0.0 | 0.0 | 0.00 | 0.00 | 0.00 | 88 | 1015.2 |
| 20260508061522 | 67 | 271 | 0.0 | 0.0 | 0.00 | 0.00 | 0.00 | 88 | 1015.1 |
| 20260508061004 | 68 | 271 | 0.0 | 0.0 | 0.00 | 0.00 | 0.00 | 87 | 1015.4 |
| 20260508060508 | 68 | 271 | 0.0 | 0.0 | 0.00 | 0.00 | 0.00 | 88 | 1015.4 |
| 20260508060026 | 68 | 271 | 0.0 | 0.0 | 0.00 | 0.00 | 0.00 | 87 | 1015.4 |
| 20260508055503 | 68 | 271 | 0.0 | 0.0 | 0.00 | 0.00 | 0.00 | 86 | 1015.3 |
| 20260508054510 | 69 | 271 | 0.0 | 0.0 | 0.00 | 0.00 | 0.00 | 85 | 1015.4 |
| 20260508054004 | 69 | 271 | 0.0 | 0.0 | 0.00 | 0.00 | 0.00 | 85 | 1015.5 |
| 20260508053507 | 69 | 271 | 0.0 | 0.0 | 0.00 | 0.00 | 0.00 | 85 | 1015.6 |
| 20260508053014 | 69 | 271 | 0.0 | 0.0 | 0.00 | 0.00 | 0.00 | 84 | 1015.7 |
| 20260508052505 | 70 | 271 | 0.0 | 0.0 | 0.00 | 0.00 | 0.00 | 84 | 1015.6 |
| 20260508052007 | 70 | 271 | 0.0 | 0.0 | 0.00 | 0.00 | 0.00 | 83 | 1015.5 |
| 20260508051521 | 70 | 271 | 0.0 | 0.0 | 0.00 | 0.00 | 0.00 | 83 | 1015.6 |
| 20260508051008 | 70 | 271 | 0.0 | 0.0 | 0.00 | 0.00 | 0.00 | 82 | 1015.6 |
| 20260508050508 | 71 | 271 | 0.0 | 0.0 | 0.00 | 0.00 | 0.00 | 81 | 1015.6 |
| 20260508045008 | 72 | 271 | 0.0 | 0.0 | 0.00 | 0.00 | 0.00 | 80 | 1015.7 |
| 20260508044523 | 72 | 271 | 0.0 | 0.0 | 0.00 | 0.00 | 0.00 | 79 | 1015.6 |
| 20260508044006 | 72 | 271 | 0.0 | 0.9 | 0.00 | 0.00 | 0.00 | 79 | 1015.6 |
| 20260508043014 | 73 | 270 | 0.0 | 2.6 | 0.00 | 0.00 | 0.00 | 78 | 1015.7 |
| 20260508042505 | 73 | 267 | 0.0 | 2.6 | 0.00 | 0.00 | 0.00 | 77 | 1015.8 |
| 20260508042009 | 73 | 263 | 0.9 | 2.6 | 0.00 | 0.00 | 0.00 | 77 | 1015.8 |
| 20260508041512 | 73 | 259 | 0.0 | 5.2 | 0.00 | 0.00 | 0.00 | 76 | 1015.7 |
| 20260508041007 | 74 | 263 | 0.9 | 5.2 | 0.00 | 0.00 | 0.00 | 76 | 1015.6 |
| 20260508040508 | 74 | 270 | 0.9 | 3.5 | 0.00 | 0.00 | 0.00 | 75 | 1015.7 |
| 20260508040021 | 74 | 241 | 0.9 | 6.1 | 0.00 | 0.00 | 0.00 | 75 | 1015.8 |
| 20260508035507 | 74 | 267 | 0.9 | 6.1 | 0.00 | 0.00 | 0.00 | 75 | 1015.9 |
| 20260508035010 | 74 | 278 | 1.7 | 3.5 | 0.00 | 0.00 | 0.00 | 74 | 1015.9 |
| 20260508034008 | 74 | 275 | 0.9 | 2.6 | 0.00 | 0.00 | 0.00 | 73 | 1015.6 |
| 20260508033514 | 75 | 286 | 0.0 | 2.6 | 0.00 | 0.00 | 0.00 | 73 | 1015.7 |
| 20260508033012 | 75 | 287 | 0.0 | 2.6 | 0.00 | 0.00 | 0.00 | 72 | 1015.7 |
| 20260508032512 | 75 | 290 | 0.9 | 5.2 | 0.00 | 0.00 | 0.00 | 72 | 1015.7 |
| 20260508032008 | 75 | 273 | 0.0 | 5.2 | 0.00 | 0.00 | 0.00 | 72 | 1015.6 |
| 20260508031511 | 75 | 283 | 0.9 | 5.2 | 0.00 | 0.00 | 0.00 | 72 | 1015.5 |
| 20260508031005 | 75 | 275 | 0.9 | 4.3 | 0.00 | 0.00 | 0.00 | 72 | 1015.4 |
| 20260508030508 | 75 | 253 | 0.9 | 3.5 | 0.00 | 0.00 | 0.00 | 72 | 1015.4 |
| 20260508030016 | 75 | 298 | 0.9 | 5.2 | 0.00 | 0.00 | 0.00 | 72 | 1015.5 |
| 20260508025009 | 76 | 275 | 0.9 | 5.2 | 0.00 | 0.00 | 0.00 | 71 | 1015.4 |
| 20260508024523 | 76 | 303 | 0.9 | 4.3 | 0.00 | 0.00 | 0.00 | 71 | 1015.4 |
| 20260508024008 | 76 | 304 | 0.9 | 3.5 | 0.00 | 0.00 | 0.00 | 70 | 1015.5 |
| 20260508023507 | 76 | 301 | 0.9 | 3.5 | 0.00 | 0.00 | 0.00 | 70 | 1015.5 |
| 20260508023024 | 76 | 284 | 0.0 | 2.6 | 0.00 | 0.00 | 0.00 | 69 | 1015.5 |
| 20260508022510 | 76 | 284 | 0.9 | 3.5 | 0.00 | 0.00 | 0.00 | 69 | 1015.5 |
| 20260508021522 | 77 | 257 | 1.7 | 6.1 | 0.00 | 0.00 | 0.00 | 69 | 1015.3 |
| 20260508020509 | 77 | 240 | 2.6 | 6.1 | 0.00 | 0.00 | 0.00 | 67 | 1015.3 |
| 20260508020017 | 77 | 269 | 1.7 | 6.1 | 0.00 | 0.00 | 0.00 | 66 | 1015.3 |
| 20260508015504 | 77 | 255 | 1.7 | 6.1 | 0.00 | 0.00 | 0.00 | 67 | 1015.2 |
| 20260508015007 | 77 | 272 | 2.6 | 7.0 | 0.00 | 0.00 | 0.00 | 66 | 1015.1 |
| 20260508014515 | 77 | 261 | 2.6 | 7.0 | 0.00 | 0.00 | 0.00 | 66 | 1015.1 |
| 20260508014009 | 77 | 269 | 0.9 | 6.1 | 0.00 | 0.00 | 0.00 | 66 | 1015.2 |
| 20260508013507 | 77 | 263 | 0.9 | 5.2 | 0.00 | 0.00 | 0.00 | 65 | 1015.2 |
| 20260508013023 | 77 | 271 | 1.7 | 3.5 | 0.00 | 0.00 | 0.00 | 65 | 1015.2 |
| 20260508012508 | 78 | 273 | 0.9 | 3.5 | 0.00 | 0.00 | 0.00 | 63 | 1015.0 |
| 20260508012012 | 78 | 253 | 0.0 | 3.5 | 0.00 | 0.00 | 0.00 | 62 | 1014.9 |
| 20260508011537 | 79 | 248 | 0.9 | 3.5 | 0.00 | 0.00 | 0.00 | 61 | 1015.0 |
| 20260508011005 | 79 | 255 | 0.9 | 3.5 | 0.00 | 0.00 | 0.00 | 61 | 1015.1 |
| 20260508005504 | 80 | 279 | 1.7 | 6.1 | 0.00 | 0.00 | 0.00 | 57 | 1014.8 |
| 20260508004526 | 80 | 253 | 2.6 | 7.0 | 0.00 | 0.00 | 0.00 | 56 | 1014.9 |
| 20260508004006 | 81 | 284 | 1.7 | 9.6 | 0.00 | 0.00 | 0.00 | 56 | 1014.8 |
| 20260508003506 | 81 | 258 | 2.6 | 9.6 | 0.00 | 0.00 | 0.00 | 56 | 1014.7 |
| 20260508003019 | 81 | 269 | 2.6 | 8.7 | 0.00 | 0.00 | 0.00 | 56 | 1014.7 |
| 20260508002508 | 82 | 241 | 3.5 | 7.8 | 0.00 | 0.00 | 0.00 | 54 | 1014.8 |
| 20260508002009 | 82 | 258 | 2.6 | 7.0 | 0.00 | 0.00 | 0.00 | 52 | 1014.7 |
| 20260508001519 | 82 | 274 | 3.5 | 7.8 | 0.00 | 0.00 | 0.00 | 50 | 1014.7 |
| 20260508001007 | 83 | 257 | 2.6 | 8.7 | 0.00 | 0.00 | 0.00 | 50 | 1014.6 |
| 20260508000514 | 83 | 264 | 4.3 | 8.7 | 0.00 | 0.00 | 0.00 | 49 | 1014.6 |
| 20260508000025 | 83 | 221 | 3.5 | 8.7 | 0.00 | 0.00 | 0.00 | 47 | 1014.6 |
| 20260507235508 | 84 | 226 | 3.5 | 8.7 | 0.00 | 0.00 | 0.00 | 46 | 1014.5 |
| 20260507235010 | 84 | 205 | 3.5 | 8.7 | 0.00 | 0.00 | 0.00 | 46 | 1014.7 |
| 20260507234525 | 85 | 257 | 3.5 | 9.6 | 0.00 | 0.00 | 0.00 | 45 | 1014.6 |
| 20260507234007 | 85 | 246 | 2.6 | 9.6 | 0.00 | 0.00 | 0.00 | 45 | 1014.6 |
| 20260507233505 | 85 | 242 | 2.6 | 8.7 | 0.00 | 0.00 | 0.00 | 44 | 1014.6 |
| 20260507233009 | 86 | 249 | 1.7 | 10.4 | 0.00 | 0.00 | 0.00 | 43 | 1014.5 |
| 20260507232502 | 86 | 232 | 5.2 | 10.4 | 0.00 | 0.00 | 0.00 | 42 | 1014.5 |
| 20260507232002 | 87 | 254 | 6.1 | 12.2 | 0.00 | 0.00 | 0.00 | 41 | 1014.4 |
| 20260507231506 | 87 | 227 | 6.1 | 12.2 | 0.00 | 0.00 | 0.00 | 40 | 1014.4 |
| 20260507231002 | 88 | 242 | 5.2 | 11.3 | 0.00 | 0.00 | 0.00 | 39 | 1014.3 |
| 20260507230506 | 89 | 253 | 6.1 | 10.4 | 0.00 | 0.00 | 0.00 | 39 | 1014.3 |
| 20260507230005 | 90 | 197 | 5.2 | 9.6 | 0.00 | 0.00 | 0.00 | 38 | 1014.3 |
| 20260507225506 | 91 | 240 | 6.1 | 10.4 | 0.00 | 0.00 | 0.00 | 38 | 1014.3 |
| 20260507225005 | 92 | 258 | 5.2 | 12.2 | 0.00 | 0.00 | 0.00 | 37 | 1014.3 |
| 20260507224512 | 92 | 223 | 5.2 | 12.2 | 0.00 | 0.00 | 0.00 | 38 | 1014.3 |
| 20260507224004 | 93 | 225 | 6.1 | 9.6 | 0.00 | 0.00 | 0.00 | 37 | 1014.2 |
| 20260507223503 | 93 | 238 | 5.2 | 12.2 | 0.00 | 0.00 | 0.00 | 37 | 1014.2 |
| 20260507223018 | 94 | 250 | 6.1 | 12.2 | 0.00 | 0.00 | 0.00 | 37 | 1014.1 |
| 20260507222506 | 94 | 237 | 6.1 | 11.3 | 0.00 | 0.00 | 0.00 | 37 | 1014.2 |
| 20260507222003 | 95 | 248 | 4.3 | 11.3 | 0.00 | 0.00 | 0.00 | 37 | 1014.1 |
| 20260507221506 | 95 | 270 | 5.2 | 10.4 | 0.00 | 0.00 | 0.00 | 36 | 1014.1 |
| 20260507221003 | 95 | 285 | 4.3 | 10.4 | 0.00 | 0.00 | 0.00 | 37 | 1014.1 |
| 20260507220502 | 95 | 275 | 3.5 | 10.4 | 0.00 | 0.00 | 0.00 | 37 | 1014.1 |
| 20260507220007 | 95 | 268 | 5.2 | 10.4 | 0.00 | 0.00 | 0.00 | 36 | 1014.1 |
| 20260507215503 | 95 | 235 | 1.7 | 9.6 | 0.00 | 0.00 | 0.00 | 36 | 1014.2 |
| 20260507214506 | 96 | 317 | 4.3 | 12.2 | 0.00 | 0.00 | 0.00 | 35 | 1014.3 |
| 20260507214005 | 96 | 220 | 6.1 | 12.2 | 0.00 | 0.00 | 0.00 | 35 | 1014.2 |
| 20260507213506 | 96 | 257 | 3.5 | 8.7 | 0.00 | 0.00 | 0.00 | 36 | 1014.2 |
| 20260507213006 | 96 | 251 | 3.5 | 12.2 | 0.00 | 0.00 | 0.00 | 32 | 1014.2 |
| 20260507212009 | 97 | 270 | 4.3 | 11.3 | 0.00 | 0.00 | 0.00 | 34 | 1014.3 |
| 20260507211519 | 97 | 308 | 4.3 | 12.2 | 0.00 | 0.00 | 0.00 | 31 | 1014.4 |
| 20260507211004 | 97 | 254 | 5.2 | 12.2 | 0.00 | 0.00 | 0.00 | 30 | 1014.5 |
| 20260507210509 | 97 | 294 | 1.7 | 7.8 | 0.00 | 0.00 | 0.00 | 28 | 1014.4 |
| 20260507210005 | 98 | 312 | 0.9 | 12.2 | 0.00 | 0.00 | 0.00 | 25 | 1014.5 |
| 20260507205503 | 98 | 249 | 2.6 | 12.2 | 0.00 | 0.00 | 0.00 | 24 | 1014.6 |
| 20260507205002 | 98 | 232 | 4.3 | 8.7 | 0.00 | 0.00 | 0.00 | 22 | 1014.4 |
| 20260507204510 | 97 | 205 | 4.3 | 12.2 | 0.00 | 0.00 | 0.00 | 22 | 1014.5 |
| 20260507204007 | 97 | 308 | 4.3 | 12.2 | 0.00 | 0.00 | 0.00 | 18 | 1014.6 |
| 20260507203013 | 97 | 254 | 7.0 | 12.2 | 0.00 | 0.00 | 0.00 | 20 | 1014.8 |
| 20260507202503 | 97 | 264 | 6.1 | 14.8 | 0.00 | 0.00 | 0.00 | 23 | 1014.7 |
| 20260507202003 | 97 | 286 | 8.7 | 14.8 | 0.00 | 0.00 | 0.00 | 22 | 1014.7 |
| 20260507201008 | 97 | 262 | 7.0 | 13.9 | 0.00 | 0.00 | 0.00 | 24 | 1014.6 |
| 20260507200508 | 97 | 301 | 7.0 | 13.0 | 0.00 | 0.00 | 0.00 | 28 | 1014.7 |
| 20260507200010 | 97 | 352 | 7.0 | 13.0 | 0.00 | 0.00 | 0.00 | 26 | 1014.7 |
| 20260507195504 | 98 | 314 | 5.2 | 16.5 | 0.00 | 0.00 | 0.00 | 30 | 1014.6 |
| 20260507195008 | 98 | 259 | 6.1 | 15.6 | 0.00 | 0.00 | 0.00 | 32 | 1014.6 |
| 20260507194511 | 98 | 236 | 3.5 | 13.9 | 0.00 | 0.00 | 0.00 | 34 | 1014.7 |
| 20260507194003 | 98 | 254 | 6.1 | 13.9 | 0.00 | 0.00 | 0.00 | 32 | 1014.9 |
| 20260507193505 | 98 | 253 | 7.8 | 13.9 | 0.00 | 0.00 | 0.00 | 33 | 1015.0 |
| 20260507193015 | 98 | 209 | 6.1 | 13.9 | 0.00 | 0.00 | 0.00 | 35 | 1014.9 |
| 20260507192504 | 98 | 238 | 5.2 | 13.9 | 0.00 | 0.00 | 0.00 | 35 | 1014.9 |
| 20260507192009 | 98 | 221 | 6.1 | 13.0 | 0.00 | 0.00 | 0.00 | 36 | 1015.0 |
| 20260507191514 | 98 | 238 | 7.0 | 13.0 | 0.00 | 0.00 | 0.00 | 36 | 1015.1 |
| 20260507191007 | 98 | 160 | 1.7 | 11.3 | 0.00 | 0.00 | 0.00 | 41 | 1015.2 |
| 20260507190504 | 98 | 215 | 7.8 | 11.3 | 0.00 | 0.00 | 0.00 | 36 | 1015.3 |
| 20260507190016 | 98 | 196 | 6.1 | 12.2 | 0.00 | 0.00 | 0.00 | 36 | 1015.3 |
| 20260507185506 | 98 | 243 | 4.3 | 13.9 | 0.00 | 0.00 | 0.00 | 39 | 1015.4 |
| 20260507185005 | 98 | 238 | 5.2 | 13.9 | 0.00 | 0.00 | 0.00 | 36 | 1015.5 |
| 20260507184009 | 97 | 225 | 5.2 | 12.2 | 0.00 | 0.00 | 0.00 | 39 | 1015.7 |
| 20260507183504 | 97 | 197 | 4.3 | 11.3 | 0.00 | 0.00 | 0.00 | 42 | 1015.8 |
| 20260507183024 | 97 | 251 | 7.0 | 11.3 | 0.00 | 0.00 | 0.00 | 39 | 1015.8 |
| 20260507182505 | 96 | 221 | 5.2 | 10.4 | 0.00 | 0.00 | 0.00 | 43 | 1015.9 |
| 20260507182004 | 95 | 233 | 5.2 | 13.9 | 0.00 | 0.00 | 0.00 | 42 | 1016.0 |
| 20260507181508 | 95 | 200 | 3.5 | 13.9 | 0.00 | 0.00 | 0.00 | 42 | 1016.1 |
| 20260507181006 | 95 | 246 | 8.7 | 13.9 | 0.00 | 0.00 | 0.00 | 41 | 1016.1 |
| 20260507180507 | 95 | 183 | 7.0 | 13.0 | 0.00 | 0.00 | 0.00 | 45 | 1016.2 |
| 20260507180029 | 95 | 225 | 5.2 | 13.9 | 0.00 | 0.00 | 0.00 | 44 | 1016.3 |
| 20260507175507 | 94 | 248 | 7.0 | 15.6 | 0.00 | 0.00 | 0.00 | 44 | 1016.3 |
| 20260507174531 | 94 | 204 | 3.5 | 14.8 | 0.00 | 0.00 | 0.00 | 49 | 1016.3 |
| 20260507174004 | 94 | 194 | 8.7 | 14.8 | 0.00 | 0.00 | 0.00 | 47 | 1016.4 |
| 20260507173505 | 94 | 197 | 4.3 | 14.8 | 0.00 | 0.00 | 0.00 | 47 | 1016.4 |
| 20260507172510 | 94 | 194 | 7.8 | 13.9 | 0.00 | 0.00 | 0.00 | 47 | 1016.5 |
| 20260507172005 | 94 | 199 | 7.0 | 13.9 | 0.00 | 0.00 | 0.00 | 49 | 1016.6 |
| 20260507171512 | 93 | 197 | 6.1 | 11.3 | 0.00 | 0.00 | 0.00 | 48 | 1016.6 |
| 20260507171004 | 93 | 237 | 5.2 | 14.8 | 0.00 | 0.00 | 0.00 | 49 | 1016.7 |
| 20260507170507 | 93 | 226 | 9.6 | 14.8 | 0.00 | 0.00 | 0.00 | 49 | 1016.7 |
| 20260507170021 | 92 | 260 | 7.0 | 13.0 | 0.00 | 0.00 | 0.00 | 51 | 1016.8 |
| 20260507165506 | 92 | 258 | 4.3 | 12.2 | 0.00 | 0.00 | 0.00 | 49 | 1016.8 |
| 20260507165004 | 92 | 203 | 7.0 | 13.9 | 0.00 | 0.00 | 0.00 | 49 | 1017.0 |
| 20260507164513 | 92 | 226 | 9.6 | 13.9 | 0.00 | 0.00 | 0.00 | 49 | 1016.8 |
| 20260507163509 | 92 | 186 | 6.1 | 13.9 | 0.00 | 0.00 | 0.00 | 53 | 1017.0 |
| 20260507163022 | 92 | 255 | 5.2 | 13.9 | 0.00 | 0.00 | 0.00 | 50 | 1016.9 |
| 20260507162506 | 92 | 266 | 5.2 | 13.0 | 0.00 | 0.00 | 0.00 | 52 | 1016.9 |
| 20260507162009 | 92 | 252 | 7.8 | 13.0 | 0.00 | 0.00 | 0.00 | 54 | 1017.0 |
| 20260507161538 | 91 | 214 | 5.2 | 12.2 | 0.00 | 0.00 | 0.00 | 53 | 1017.1 |
| 20260507161007 | 91 | 259 | 5.2 | 10.4 | 0.00 | 0.00 | 0.00 | 53 | 1017.1 |
| 20260507160509 | 91 | 289 | 4.3 | 11.3 | 0.00 | 0.00 | 0.00 | 52 | 1017.1 |
| 20260507160016 | 91 | 219 | 7.0 | 11.3 | 0.00 | 0.00 | 0.00 | 53 | 1017.2 |
| 20260507155507 | 90 | 184 | 3.5 | 13.0 | 0.00 | 0.00 | 0.00 | 59 | 1017.3 |
| 20260507155007 | 90 | 190 | 7.8 | 13.0 | 0.00 | 0.00 | 0.00 | 58 | 1017.3 |
| 20260507154519 | 90 | 229 | 6.1 | 12.2 | 0.00 | 0.00 | 0.00 | 58 | 1017.3 |
| 20260507154008 | 90 | 196 | 4.3 | 11.3 | 0.00 | 0.00 | 0.00 | 59 | 1017.4 |
| 20260507153504 | 89 | 215 | 4.3 | 11.3 | 0.00 | 0.00 | 0.00 | 60 | 1017.6 |
| 20260507152509 | 89 | 222 | 6.1 | 9.6 | 0.00 | 0.00 | 0.00 | 57 | 1017.4 |
| 20260507152012 | 89 | 195 | 4.3 | 12.2 | 0.00 | 0.00 | 0.00 | 57 | 1017.4 |
| 20260507151535 | 89 | 187 | 6.1 | 12.2 | 0.00 | 0.00 | 0.00 | 57 | 1017.6 |
| 20260507151007 | 88 | 199 | 6.1 | 11.3 | 0.00 | 0.00 | 0.00 | 56 | 1017.5 |
| 20260507150511 | 88 | 213 | 4.3 | 12.2 | 0.00 | 0.00 | 0.00 | 59 | 1017.5 |
| 20260507150027 | 88 | 189 | 6.1 | 13.9 | 0.00 | 0.00 | 0.00 | 57 | 1017.5 |
| 20260507145503 | 87 | 193 | 4.3 | 13.9 | 0.00 | 0.00 | 0.00 | 60 | 1017.5 |
| 20260507145007 | 87 | 214 | 6.1 | 10.4 | 0.00 | 0.00 | 0.00 | 61 | 1017.6 |
| 20260507144516 | 86 | 196 | 3.5 | 11.3 | 0.00 | 0.00 | 0.00 | 61 | 1017.7 |
| 20260507144003 | 86 | 178 | 5.2 | 11.3 | 0.00 | 0.00 | 0.00 | 60 | 1017.5 |
| 20260507143502 | 85 | 192 | 5.2 | 11.3 | 0.00 | 0.00 | 0.00 | 62 | 1017.5 |